Terug naar catalogus

STARLINK-11152

ActiefCommunicatieVLEO
NORAD 60194·PAYLOAD·🇺🇸 United States

Gelanceerd Jul 3, 2024 vanaf Cape Canaveral Space Force Station

Loading…

Volgende Passages (komende 24 uur)

TLE

VersSource: CelesTrak SupGP

Epoch: Sep 15, 2026, 03:10 UTC

1 60194C 24124M   26258.13243056  .00049655  00000+0  40888-3 0  2587
2 60194  53.1569 307.3970 0001258  81.9750  68.1496 15.69692961    15

Volg STARLINK-11152 in realtime met AllMySat

Download on the App Store